[Iaude] MPEC H03: 2024 GJ6 [a=1.54,e=0.37,i=8.1,H=28.0]
    mpec at cfa.harvard.edu 
    mpec at cfa.harvard.edu
       
    Tue Apr 16 07:52:26 EDT 2024
    
    
  
M.P.E.C. 2024-H03                                Issued 2024 April 16, 11:50 UT
     The Minor Planet Electronic Circulars contain information on unusual
         minor planets, routine data on comets and natural satellites,
         and occasional editorial announcements.  They are published
    on behalf of Division F of the International Astronomical Union by the
          Minor Planet Center, Smithsonian Astrophysical Observatory,
                          Cambridge, MA 02138, U.S.A.
			  
             Prepared using the Tamkin Foundation Computer Network
                              MPC at CFA.HARVARD.EDU
            URL https://www.minorplanetcenter.net/    ISSN 1523-6714
                                    2024 GJ6                                    
Observations:
     K24G06J*1C2024 04 15.27104814 25 14.002+33 42 23.51         20.73GVEH003G96
     K24G06J 1C2024 04 15.27619614 25 23.023+33 41 46.10         20.86GVEH003G96
     K24G06J 1C2024 04 15.28135214 25 31.829+33 41 11.04               VEH003G96
     K24G06J 1C2024 04 15.28650914 25 40.588+33 40 33.85         20.84GVEH003G96
     K24G06J KC2024 04 15.31890714 26 36.540+33 36 32.80         20.36GVEH003I52
     K24G06J KC2024 04 15.32042014 26 39.170+33 36 21.20         20.62GVEH003I52
     K24G06J KC2024 04 15.32193414 26 41.800+33 36 09.60         20.71GVEH003I52
     K24G06J KC2024 04 15.32345314 26 44.420+33 35 57.80         20.25GVEH003I52
     K24G06J KB2024 04 15.36041 14 27 40.567+33 29 39.98         21.1 GVEH003H36
     K24G06J KB2024 04 15.37363 14 28 04.354+33 27 44.42         20.9 GVEH003H36
     K24G06J KB2024 04 15.38682 14 28 28.442+33 25 44.26         20.4 GVEH003H36
     K24G06J KC2024 04 15.44762614 30 28.512+33 17 44.99         20.24GVEH003I52
     K24G06J KC2024 04 15.44845014 30 30.078+33 17 36.82         20.38GVEH003I52
     K24G06J KC2024 04 15.45176414 30 36.382+33 17 03.52         20.53GVEH003I52
     K24G06J KC2024 04 15.45259014 30 37.951+33 16 55.31         20.93GVEH003I52
     K24G06J KB2024 04 15.92147014 50 04.76 +31 49 16.9          19.5 GXEH003958
     K24G06J KC2024 04 15.92520914 50 06.11 +31 48 54.9          19.8 GVEH003L01
     K24G06J KB2024 04 15.92683614 50 18.47 +31 48 10.3          19.6 GXEH003958
     K24G06J KC2024 04 15.92755814 50 11.93 +31 48 25.6          19.7 GVEH003L01
     K24G06J KC2024 04 15.92966014 50 17.18 +31 47 58.8          19.5 GVEH003L01
     K24G06J KB2024 04 15.93209214 50 31.81 +31 47 06.3          19.5 GXEH003958
     K24G06J 1C2024 04 15.95445 14 51 19.13 +31 41 34.3          20.4 VXEH003033
     K24G06J 1C2024 04 15.95491 14 51 20.29 +31 41 27.8          20.2 VXEH003033
     K24G06J 1C2024 04 15.95537 14 51 21.45 +31 41 22.0          20.7 VXEH003033
     K24G06J 1C2024 04 15.95584 14 51 22.66 +31 41 15.8          20.4 VXEH003033
     K24G06J 1C2024 04 15.95642 14 51 24.07 +31 41 08.1          20.6 VXEH003033
     K24G06J 1C2024 04 16.33349415 10 28.049+30 02 09.67         19.43GVEH003G96
     K24G06J 1C2024 04 16.33867915 10 44.026+30 00 30.96         19.65GVEH003G96
     K24G06J 1C2024 04 16.34386515 10 59.977+29 58 51.82         19.41GVEH003G96
     K24G06J 1C2024 04 16.34904215 11 15.925+29 57 12.20         19.38GVEH003G96
     K24G06J KC2024 04 16.38645115 13 12.882+29 44 45.13         20.11GVEH003I52
     K24G06J KC2024 04 16.38743315 13 15.989+29 44 24.61         20.02GVEH003I52
     K24G06J KC2024 04 16.38840215 13 19.031+29 44 04.63         19.66GVEH003I52
     K24G06J KC2024 04 16.38937115 13 22.123+29 43 44.58         19.92GVEH003I52
Observer details:
033 Karl Schwarzschild Observatory, Tautenburg.  Observers S. Melnikov, C.
    Hogner, F. Ludwig, M. Hartmann, B. Stecklum.  Measurer B. Stecklum.
    1.34-m f/3 Schmidt + CCD.
958 Observatoire de Dax.  Observer P. Dupouy.  0.50-m f/4.5 Reflector + CMO.
G96 Mt. Lemmon Survey.  Observer G. J. Leonard.  Measurers T. Beuden, V. F.
    Carvajal, D. Fay, J. B. Fazekas, D. C. Fuls, A. R. Gibbs, A. D. Grauer, H.
    Groeller, J. K. Hogan, R. A. Kowalski, S. M. Larson, G. J. Leonard, D.
    Rankin, R. L. Seaman, F. C. Shelly, K. W. Wierzchos.  1.5-m reflector +
    10K CCD.
H36 Sandlot Observatory, Scranton.  Observer G. Hug.  0.56-m f/4.8 .56 meter
    Reflector + CMO.
I52 Steward Observatory, Mt. Lemmon Station.  Observers J. B. Fazekas, T.
    Beuden.  Measurers T. Beuden, V. F. Carvajal, D. Fay, J. B. Fazekas, D. C.
    Fuls, A. R. Gibbs, A. D. Grauer, H. Groeller, J. K. Hogan, R. A. Kowalski,
    S. M. Larson, G. J. Leonard, D. Rankin, R. L. Seaman, F. C. Shelly, K. W.
    Wierzchos.  1.0-m prime focus + CCD.
L01 Visnjan Observatory, Tican.  Observer K. Korlevic.  1.0-m f/2.9 reflector
    + CCD.
Orbital elements:
2024 GJ6                                                 Earth MOID = 0.0003 AU
Epoch 2024 Mar. 31.0 TT = JDT 2460400.5                 Veres                   
M 338.60388              (2000.0)            P               Q                  
n   0.51510168     Peri.  206.04193     -0.56299550     +0.82350391             
a   1.5412535      Node    29.84462     -0.73164455     -0.45732381             
e   0.3662292      Incl.    8.06729     -0.38435962     -0.33570260             
P   1.91           H   28.04          G   0.15           U   7                  
Residuals in seconds of arc
240415 G96  1.0-  0.4+    240415 I52  0.1+  0.5+    240415 033  0.2-  0.3+
240415 G96  1.3+  1.0-    240415 I52  0.2+  0.1-    240415 033  1.1-  0.2+
240415 G96  0.7+  0.4+    240415 I52  0.1+  0.1-    240416 G96  0.8+  0.3-
240415 G96  0.6-  0.1+    240415 958  0.9-  0.3+    240416 G96 (1.1+  0.5-)
240415 I52  0.4-  0.1+    240415 L01  0.2+  0.4-    240416 G96  0.5+  0.2-
240415 I52  0.3-  0.2+    240415 958  0.6+  0.8-    240416 G96  0.3-  0.2+
240415 I52  0.3-  0.3+    240415 L01  0.4-  0.1-    240416 I52  0.0   0.3+
240415 I52  0.6-  0.3+    240415 L01  0.5-  0.4-    240416 I52  0.1+  0.0
240415 H36 (2.0+  1.5-)   240415 958  0.8+  0.2-    240416 I52  0.2-  0.0
240415 H36  0.4+  0.4+    240415 033  0.1-  0.4+    240416 I52  0.1+  0.0
240415 H36  0.4+  0.0     240415 033  0.2-  0.0
240415 I52  0.0   0.6+    240415 033  0.4-  0.2+
Ephemeris:
2024 GJ6                 a,e,i = 1.54, 0.37, 8                   q = 0.9768
Date    TT    R. A. (2000) Decl.     Delta      r    Elong.  Phase     V
2024 03 17    12 38 18.2 +33 39 33   0.1566  1.1277   145.6    29.9    25.6
...
2024 04 01    12 49 41.2 +36 14 22   0.08188 1.0626   139.2    37.9    24.3
...
2024 04 09    13 08 47.1 +36 46 58   0.04421 1.0337   135.7    42.6    23.0
...
2024 04 15    14 16 48.3 +34 13 47   0.01698 1.0153   134.8    44.5    20.9
2024 04 16    14 53 09.6 +31 35 14   0.01279 1.0125   134.5    45.0    20.3
2024 04 17    15 55 34.9 +25 01 11   0.0090901.0099   131.7    48.0    19.7
...
2024 04 23    23 05 38.4 -36 01 51   0.02261 0.9957    64.1   114.7    24.3
...
2024 05 01    23 59 23.2 -37 05 43   0.05917 0.9826    63.5   113.4    26.2
...
2024 05 16    00 23 09.5 -35 49 43   0.1267  0.9767    70.8   102.2    27.2
M. P. C. Staff               (C) Copyright 2024 MPC           M.P.E.C. 2024-H03
    
    
More information about the Iaude
mailing list